Flag for Norway Weather past 2 weeks in Nøtterøy, Norway

Now
36 °F

Sunny.


Feels Like: 33 °F
Forecast: 35 / 51 °F
Wind: 3 mph from North

Location: Torp

Current Time: Apr 27, 2015 at 8:09:09 AM

Latest Report: Apr 27, 2015 at 7:20 AM


Visibility: 10 mi

Pressure: 29.62 "Hg

Humidity: 70%

Dew point: 27 °F

Location of NøtterøyLocation

Historic Weather in Nøtterøy — Graph

°F

Nøtterøy temperature yesterday

Maximum temperature yesterday: 52 °F (at 2:50 PM)
Minimum temperature yesterday: 36 °F (at 4:20 AM)
Average temperature yesterday: 44 °F

Past Weeks' High & Low Weather Summary

 TemperatureHumidityPressure
High68 °F (Apr 20, 5:50 PM)100% (Apr 14, 10:20 AM)30.36 "Hg (Apr 14, 10:20 AM)
Low32 °F (Apr 13, 6:20 AM)16% (Apr 20, 6:20 PM)29.39 "Hg (Apr 25, 6:50 PM)
Average47 °F55%29.90 "Hg
* Reported Apr 12 6:20 AM — Apr 27 6:50 AM, Nøtterøy, Weather by CustomWeather, © 2015

Note: Actual official high and low records may vary slightly from our data, if they occured in-between our weather recording intervals... More about our weather records

Advertising

Nøtterøy weather history for previous 24 hours

 ConditionsComfort  
Time TempWeatherWind HumidityBarometerVisibility
6:50 AM
Mon, Apr 27
34 °FSunny.3 mph70%29.59 "Hg10 mi
6:20 AM32 °FClear.5 mph75%29.59 "Hg10 mi
5:50 AM34 °FClear.5 mph70%29.59 "Hg10 mi
5:20 AM34 °FChilly.3 mph70%29.59 "HgN/A
4:50 AM36 °FChilly.5 mph65%29.59 "HgN/A
4:20 AM36 °FChilly.5 mph65%29.62 "HgN/A
3:50 AM34 °FChilly.5 mph70%29.62 "HgN/A
3:20 AM34 °FChilly.3 mph70%29.62 "HgN/A
2:50 AM36 °FChilly.5 mph65%29.62 "HgN/A
2:20 AM37 °FChilly.6 mph60%29.62 "HgN/A
1:50 AM37 °FChilly.5 mph60%29.62 "HgN/A
1:20 AM37 °FChilly.3 mph60%29.62 "HgN/A
12:50 AM39 °FChilly.5 mph56%29.62 "HgN/A
12:20 AM39 °FChilly.5 mph56%29.62 "HgN/A
11:50 PM
Sun, Apr 26
39 °FChilly.3 mph56%29.62 "HgN/A
11:20 PM39 °FChilly.5 mph61%29.62 "HgN/A
10:50 PM41 °FClear.6 mph57%29.59 "Hg10 mi
10:20 PM43 °FClear.7 mph53%29.59 "Hg10 mi
9:50 PM45 °FSunny.7 mph49%29.59 "Hg10 mi
9:20 PM45 °FSunny.6 mph61%29.59 "Hg10 mi
8:50 PM46 °FSunny.6 mph53%29.59 "Hg10 mi
8:20 PM48 °FSunny.6 mph54%29.59 "Hg10 mi
7:50 PM48 °FSunny.9 mph54%29.59 "Hg10 mi
7:20 PM48 °FScattered clouds.8 mph54%29.56 "HgN/A
6:50 PM50 °FScattered showers. Scattered clouds.10 mph50%29.56 "HgN/A
6:20 PM50 °FScattered showers. Scattered clouds.14 mph50%29.56 "HgN/A
5:50 PM52 °FScattered showers. Scattered clouds.15 mph47%29.56 "HgN/A
5:20 PM50 °FScattered showers. Scattered clouds.16 mph54%29.56 "HgN/A
4:50 PM52 °FScattered showers. Scattered clouds.16 mph47%29.56 "HgN/A
4:20 PM52 °FScattered clouds.18 mph47%29.56 "HgN/A
3:50 PM52 °FScattered showers. Scattered clouds.20 mph47%29.56 "HgN/A
3:20 PM50 °FScattered showers. Scattered clouds.21 mph50%29.56 "HgN/A
2:50 PM52 °FScattered clouds.20 mph47%29.56 "HgN/A
2:20 PM50 °FScattered clouds.16 mph54%29.56 "HgN/A
1:50 PM50 °FScattered clouds.17 mph54%29.56 "HgN/A
1:20 PM50 °FScattered clouds.13 mph54%29.56 "HgN/A
12:50 PM50 °FScattered clouds.8 mph54%29.56 "HgN/A
12:20 PM48 °FScattered clouds.8 mph50%29.56 "HgN/A
11:50 AM48 °FPassing clouds.10 mph54%29.56 "HgN/A
11:20 AM46 °FPassing clouds.12 mph57%29.56 "HgN/A
10:50 AM46 °FSunny.13 mph57%29.56 "Hg10 mi
10:20 AM45 °FSunny.14 mph61%29.53 "Hg10 mi
9:50 AM45 °FSunny.14 mph61%29.53 "Hg10 mi
9:20 AM43 °FSunny.10 mph66%29.53 "Hg10 mi
8:50 AM43 °FSunny.16 mph71%29.53 "Hg10 mi
8:20 AM41 °FSunny.14 mph76%29.53 "Hg10 mi
Weather by CustomWeather, © 2015

See weather overviewHow to use our weather pages